Wind_Speed
20 20 20 20 20 20 20 20 19 19 18 19 19 18 18 18 18 18 17 18 18 18 18 18 18 20 20 20 21 23 26 25 21 18 12 8 4 6 7 7 8 7 6 3 4 5 5 6 4 4 6 5 5 4 6 7 6 6 7 10 11 11 12 11 12 5 6 7 1 5 7 6 5 8 9 13 20 22 22 22 20 19 20 19 10 16 27 25
21 21 21 21 21 21 21 20 20 20 20 19 19 18 18 18 17 18 17 18 18 17 18 18 17 18 20 20 20 23 24 22 21 16 8 4 2 6 7 7 8 7 5 3 2 3 4 4 2 4 6 4 4 4 5 6 8 8 7 9 10 11 11 10 9 2 5 6 6 5 7 8 6 6 6 10 19 22 22 23 23 22 22 20 10 21 23 23
22 22 22 22 21 21 21 21 20 21 20 20 19 19 18 18 18 18 18 18 18 17 17 18 17 18 18 19 20 22 21 21 17 5 2 1 3 6 6 6 6 5 4 3 1 2 3 2 2 5 6 5 4 5 6 7 7 9 8 9 10 10 10 7 6 4 6 9 10 7 7 9 8 7 7 7 14 21 22 21 23 23 22 20 13 16 19 21
22 21 22 22 22 22 22 22 21 22 22 20 20 20 19 19 18 18 18 18 18 17 16 16 17 16 17 19 20 20 19 17 6 6 6 3 5 7 6 5 4 4 4 3 2 2 2 2 4 5 6 5 5 5 7 7 6 8 8 10 9 4 5 6 6 7 8 9 11 10 10 9 8 7 7 8 10 16 21 21 23 22 19 20 16 14 16 18
22 22 22 22 22 23 22 22 22 22 22 21 20 20 20 19 19 18 18 18 18 17 16 16 16 15 17 19 18 17 15 8 4 8 4 4 4 4 5 4 4 5 5 4 3 3 3 4 4 5 6 5 5 6 8 8 5 7 9 11 10 4 5 7 6 7 8 10 11 12 13 10 9 10 9 10 11 13 12 10 11 11 10 12 14 18 16 17
23 22 22 22 22 22 23 22 22 22 22 22 21 20 20 20 19 19 18 17 17 17 15 15 15 14 15 17 17 13 10 4 4 4 4 5 3 1 2 2 3 4 5 4 4 4 4 4 5 5 5 5 6 6 5 6 5 7 8 9 8 6 7 8 7 7 8 10 11 12 13 13 14 14 11 13 13 13 11 11 11 10 11 14 9 17 18 17
23 23 23 23 23 22 23 24 23 23 23 22 22 21 21 21 20 19 18 18 17 17 16 14 14 13 15 16 13 9 8 5 0 3 7 4 2 2 1 2 3 5 6 5 5 5 4 4 6 4 5 5 5 5 3 4 6 7 8 6 6 6 8 9 8 8 7 10 12 11 14 16 19 16 13 15 14 14 15 14 13 12 9 10 10 12 17 17
24 25 24 24 24 23 23 24 24 24 24 23 23 23 22 21 21 20 19 19 18 17 16 14 13 11 13 13 10 7 7 4 1 3 8 5 2 2 3 2 4 6 7 7 5 3 3 5 4 2 5 4 1 4 3 4 9 10 10 6 5 7 8 9 9 10 10 10 10 13 16 18 21 19 17 19 16 15 17 16 15 14 11 9 10 11 13 15
24 25 25 24 24 25 25 25 25 25 25 24 24 23 23 22 21 20 20 19 18 17 15 14 13 10 10 9 8 6 1 2 1 2 4 4 2 2 3 2 4 6 8 7 5 4 4 3 2 1 4 2 1 4 2 4 6 5 7 6 6 9 9 9 9 11 11 9 9 14 18 18 19 19 21 24 20 17 18 17 14 12 10 9 10 11 12 13
24 25 25 25 25 26 26 26 26 25 25 25 25 24 23 22 21 20 20 19 18 17 15 14 11 8 8 6 6 5 3 3 2 2 3 3 3 5 5 4 4 7 9 8 7 6 4 1 0 1 5 4 3 4 3 5 2 2 6 8 10 12 10 10 11 11 11 10 12 15 18 18 17 16 17 20 20 18 17 16 13 10 8 7 9 11 11 13
26 26 26 26 26 26 26 27 26 26 26 26 25 24 23 21 20 20 19 18 18 17 15 13 9 8 8 6 6 4 3 2 1 1 4 5 8 10 9 7 6 8 9 8 8 7 4 1 1 3 3 1 2 4 4 4 4 5 8 10 11 12 11 12 12 12 10 10 12 14 18 18 17 18 18 18 19 19 17 16 15 14 11 8 9 11 11 11
27 27 27 26 26 26 27 28 27 26 25 25 24 23 22 20 19 19 19 18 17 16 13 8 6 8 8 6 9 7 2 3 4 6 9 10 12 13 10 8 9 10 10 9 8 7 5 2 3 6 3 2 3 3 1 1 5 7 8 10 11 11 12 13 12 11 10 10 10 11 14 17 19 20 21 19 20 23 22 20 18 16 13 10 10 10 11 10
27 27 27 27 27 27 28 27 27 26 25 24 23 22 21 20 19 18 17 15 12 10 8 5 5 8 8 5 7 10 8 7 8 10 9 9 9 7 5 6 9 11 10 10 7 4 5 4 5 7 3 4 5 2 3 4 7 8 8 9 9 9 11 9 9 9 10 9 9 10 11 13 16 19 20 20 20 23 26 24 20 16 12 11 10 9 11 11
27 27 27 27 28 28 28 27 27 26 25 23 22 21 20 19 16 14 11 8 6 4 0 7 8 7 7 6 5 6 8 7 8 7 4 3 4 3 3 3 6 9 9 9 6 3 5 5 6 7 4 6 5 4 6 8 7 7 8 8 7 8 5 6 7 7 9 8 9 11 11 11 13 14 16 18 21 23 26 26 22 18 14 11 10 10 11 11
27 28 27 27 28 29 28 27 27 26 23 21 20 20 18 14 11 9 5 4 6 7 6 7 9 6 5 7 5 5 5 4 5 4 2 3 5 4 4 2 3 6 7 8 7 5 6 6 7 7 4 4 5 7 8 7 6 6 7 7 7 7 4 5 7 7 9 7 9 12 10 10 13 14 14 14 17 21 25 27 25 21 17 14 11 11 12 11
27 28 28 28 28 29 28 27 26 24 21 18 19 18 13 11 8 5 3 6 7 7 6 5 6 5 5 2 1 3 4 4 4 4 4 5 6 5 2 3 3 6 7 7 7 6 7 7 7 6 5 5 6 7 6 6 7 6 6 8 7 7 6 4 4 6 9 8 9 13 10 10 11 12 14 15 17 19 21 25 28 25 19 15 12 11 12 12
28 28 28 28 28 29 28 26 25 22 18 17 19 14 9 9 6 2 5 6 5 4 1 1 3 4 4 1 2 3 2 4 6 6 6 7 8 8 5 5 4 6 7 8 8 8 8 8 6 5 6 7 6 5 6 7 7 6 6 6 8 9 8 6 3 5 7 8 9 12 12 13 14 12 13 15 18 19 18 22 28 25 19 15 12 12 13 13
29 28 28 28 28 28 27 25 23 19 16 15 17 12 7 8 5 1 2 3 2 2 2 2 3 3 2 2 4 4 6 8 9 9 10 9 10 9 7 7 4 6 8 8 9 9 7 7 6 6 6 7 6 6 7 7 6 6 5 5 7 9 9 9 6 2 3 7 10 12 13 15 17 16 16 17 17 18 18 20 23 24 21 16 13 13 13 14
29 28 28 28 28 28 26 24 20 16 15 15 16 11 5 6 3 4 3 3 3 2 1 1 2 3 3 4 7 8 11 11 10 9 7 4 7 8 8 7 6 8 8 7 8 10 7 6 6 7 7 8 9 9 10 10 9 10 9 9 10 10 10 10 8 5 6 10 12 13 14 15 17 17 17 18 18 18 18 18 19 22 21 18 15 14 14 15
29 29 28 28 28 27 25 22 17 13 13 15 16 9 3 5 2 2 3 5 3 3 5 4 4 7 7 7 8 11 11 6 6 4 2 3 5 6 8 9 8 9 9 10 8 7 6 8 9 9 9 10 11 11 11 12 11 11 11 11 12 12 12 11 9 7 6 9 11 13 14 15 18 18 17 17 18 19 20 19 19 21 21 18 17 16 16 17
29 29 29 29 28 26 23 18 13 9 10 13 14 7 5 8 5 5 8 5 3 4 8 7 7 9 9 9 11 11 7 4 6 3 4 3 4 5 6 8 10 8 9 12 9 4 5 9 12 12 12 12 12 13 13 13 12 12 11 11 12 12 11 11 10 8 7 9 11 14 15 16 18 18 17 17 18 20 21 21 21 22 22 18 17 17 16 15
29 29 29 29 27 25 21 14 9 7 7 9 11 8 8 8 5 5 6 6 5 5 7 8 7 8 8 9 8 6 5 6 8 3 6 4 6 6 5 7 10 10 9 11 9 6 7 11 14 14 13 13 14 14 15 15 15 13 12 11 11 10 10 11 10 9 8 8 9 13 14 15 17 19 19 19 19 19 20 21 20 21 22 19 17 16 16 15
30 30 30 30 27 23 18 10 6 7 6 5 8 9 7 6 6 5 5 6 7 5 6 5 6 6 5 4 2 4 8 6 9 4 4 4 7 5 6 8 10 11 10 10 10 9 9 9 10 11 11 13 14 14 14 14 13 12 11 11 12 11 11 10 8 8 7 8 11 14 13 13 15 18 19 19 19 19 20 22 22 21 22 20 19 16 16 16
31 31 31 29 26 22 14 5 3 7 4 2 6 7 5 7 7 5 5 5 5 3 4 3 4 4 3 3 1 5 7 6 8 5 3 4 5 2 6 9 10 11 10 12 14 14 14 11 9 10 11 14 15 14 14 12 10 12 13 13 13 14 14 12 10 11 11 12 14 15 13 11 14 18 18 17 19 21 21 22 22 22 22 20 20 18 17 17
32 32 30 28 25 18 8 1 2 5 3 2 5 5 4 7 6 5 5 4 3 2 3 4 3 2 1 2 3 5 9 6 7 5 3 6 6 4 6 7 8 10 11 14 15 13 14 13 12 14 13 14 15 14 14 12 9 12 15 16 17 17 17 16 15 13 11 11 11 12 11 9 12 18 18 15 18 21 21 22 23 23 22 21 19 19 18 17
34 32 29 26 23 14 4 0 3 5 5 2 5 4 4 7 7 4 4 4 3 2 0 3 3 1 2 2 2 8 10 4 3 4 4 6 7 7 8 6 6 10 12 11 10 9 10 11 10 13 14 14 16 14 14 12 10 11 13 16 18 18 17 17 16 13 10 10 9 9 10 10 10 14 16 17 19 22 22 22 24 21 21 20 19 18 18 17
36 31 29 24 18 11 3 2 5 6 5 3 4 5 7 8 6 3 4 4 2 2 4 0 0 2 3 5 6 8 7 6 6 3 2 4 6 6 8 9 7 9 9 7 7 5 5 9 9 10 13 14 14 12 12 13 11 11 11 12 14 15 16 16 15 12 11 12 12 12 12 11 11 11 14 16 19 22 22 23 23 22 21 21 20 20 20 19
38 32 28 20 12 6 2 4 7 5 4 4 5 7 9 8 5 4 4 3 1 2 3 1 1 2 4 8 8 6 6 9 7 0 4 4 5 5 9 11 10 10 6 4 8 5 3 9 12 12 12 11 12 11 12 14 13 12 12 11 11 14 15 15 13 12 11 12 12 13 13 11 11 10 12 16 17 19 23 24 23 23 23 22 21 21 21 20
38 31 23 14 6 2 2 4 5 5 5 6 7 9 9 5 3 4 4 3 1 1 1 1 2 3 7 11 7 3 5 6 5 3 2 5 5 5 7 8 9 12 9 8 12 11 9 10 9 10 11 10 13 12 10 13 12 10 11 12 12 13 14 13 11 10 11 12 12 14 14 12 10 9 10 14 17 17 19 20 21 22 23 22 20 21 21 19
35 25 16 8 4 2 3 3 4 6 7 7 9 9 6 3 3 4 3 1 3 3 2 3 6 9 11 12 8 7 8 7 6 6 6 4 4 5 5 4 5 9 10 11 13 15 15 10 3 6 10 10 11 10 8 11 11 9 9 11 11 11 11 11 10 9 9 11 14 18 18 15 11 8 9 12 15 16 15 15 18 20 22 22 20 19 21 20
28 17 10 8 5 3 4 3 4 8 9 9 10 8 4 4 4 4 3 2 3 5 6 6 10 13 13 12 10 9 11 10 8 7 7 5 4 6 5 3 3 5 8 9 10 11 13 11 7 8 11 11 11 10 8 10 11 10 9 9 9 9 9 9 9 9 9 11 13 17 19 18 13 8 10 13 15 17 16 15 18 21 22 21 20 19 20 20
21 11 10 10 8 6 5 6 9 11 10 10 9 6 4 4 2 2 5 4 3 5 8 10 13 14 15 14 9 9 12 11 9 8 8 7 6 5 4 4 3 4 5 4 5 6 8 9 10 11 11 12 11 9 8 9 10 10 9 8 8 7 7 8 9 8 9 11 13 15 17 16 12 10 15 19 16 13 14 13 15 20 22 20 20 20 19 18
14 6 9 11 11 9 8 9 10 10 10 10 7 4 4 4 3 3 6 5 4 7 10 12 15 15 14 12 8 11 11 9 9 10 9 8 8 6 6 5 5 5 5 6 7 6 5 5 8 9 8 10 11 8 6 7 8 10 9 8 9 7 7 9 8 8 10 12 14 16 15 11 10 12 18 24 21 15 13 13 13 17 21 20 20 19 18 18
8 5 8 10 12 12 11 11 11 11 11 9 6 4 4 4 4 5 7 6 8 11 12 14 17 15 11 8 7 9 8 7 10 11 10 8 6 6 5 2 4 5 5 6 6 4 5 2 4 5 3 6 11 11 8 6 5 9 10 8 9 8 7 7 7 7 8 8 10 12 11 8 8 10 16 22 21 17 15 14 13 14 19 19 18 19 19 18
4 4 9 9 9 14 15 12 11 12 10 7 5 4 4 4 5 6 6 7 9 11 14 16 15 11 9 7 3 4 3 5 11 12 10 8 7 7 5 1 2 4 3 4 3 2 7 4 2 3 2 3 9 10 9 9 5 7 8 9 9 8 7 7 8 8 7 7 7 7 7 7 7 9 13 17 18 18 16 16 15 15 19 20 18 18 18 17
3 2 6 7 9 16 19 13 12 13 9 7 5 3 4 3 5 6 6 8 9 12 15 14 10 7 8 7 3 3 1 5 12 12 7 9 9 5 4 3 3 3 4 4 3 3 6 3 2 3 6 7 8 7 9 10 5 4 8 10 9 9 8 8 8 9 8 7 6 6 9 9 9 8 8 10 13 16 16 15 15 16 20 21 18 17 17 17
6 1 2 8 15 20 18 11 12 11 7 6 4 3 3 3 5 6 7 9 10 11 11 9 6 6 8 8 7 10 10 8 11 9 7 10 7 3 5 4 4 3 4 4 4 3 5 5 2 5 6 5 5 7 9 11 8 4 6 7 7 8 7 6 7 7 7 8 6 8 12 11 8 5 4 9 13 15 14 13 14 17 20 21 18 17 18 17
6 2 2 9 19 21 15 11 12 9 6 4 2 1 2 3 5 6 8 10 10 9 8 6 4 5 8 10 9 13 14 11 10 10 9 7 3 2 5 3 1 3 4 4 5 2 4 6 2 2 3 2 4 7 6 9 12 9 4 3 4 5 6 6 5 5 5 7 6 10 13 8 5 2 1 6 11 13 12 11 13 17 19 19 18 18 18 17
6 3 3 10 22 20 14 11 10 7 4 3 2 2 2 4 6 7 8 9 8 7 7 6 5 5 8 10 11 12 10 9 12 11 5 3 3 2 2 1 1 4 5 6 6 3 3 4 1 3 3 1 3 6 6 6 9 10 7 5 5 4 3 4 4 4 5 6 5 8 11 5 3 2 2 3 5 6 8 8 10 15 17 16 17 17 17 16
5 3 2 12 24 18 10 9 7 3 2 2 3 3 4 5 6 8 8 8 6 5 6 8 8 8 9 11 10 8 7 10 12 9 4 4 6 2 3 3 1 5 7 9 8 6 4 3 3 1 3 4 4 5 4 3 5 7 7 7 7 4 1 3 5 6 6 6 5 6 8 3 3 2 3 4 2 1 4 5 6 9 13 14 15 15 15 15
5 1 2 17 26 15 6 6 2 3 2 2 2 3 6 7 7 9 8 5 5 5 6 9 10 9 10 11 8 5 6 10 10 7 5 5 6 4 3 5 2 5 7 6 8 6 4 3 4 5 3 3 2 2 1 2 3 4 5 6 6 5 4 5 7 7 7 7 8 5 4 2 3 2 4 5 4 4 1 2 3 6 9 10 11 13 13 14
4 2 4 19 25 14 7 2 3 2 2 4 5 4 5 7 7 8 8 5 5 4 5 8 9 9 9 8 6 4 6 9 8 6 7 6 7 7 2 6 3 7 6 6 5 4 3 3 5 6 4 1 1 2 3 3 3 3 5 6 6 5 5 7 7 4 4 8 10 7 2 2 1 2 4 6 6 5 2 0 1 4 6 7 8 10 11 12
3 2 4 17 22 13 7 2 3 2 3 4 6 4 4 5 7 8 8 6 6 6 6 7 8 8 7 6 5 3 5 7 7 6 9 10 9 9 1 4 3 6 5 5 4 3 2 3 4 5 4 3 3 3 3 4 4 5 7 7 7 7 6 7 8 5 7 9 8 6 4 3 1 3 5 7 8 4 1 0 0 2 4 6 7 9 9 10
3 1 1 13 20 10 3 4 4 4 5 6 5 4 3 3 5 8 8 6 6 7 8 8 8 8 8 8 7 5 5 5 5 6 9 9 10 11 8 5 5 3 4 3 2 1 2 3 4 4 3 4 4 3 4 4 5 5 5 7 9 10 10 9 9 7 7 10 8 4 4 4 1 4 6 7 5 1 1 1 1 1 3 5 6 7 9 10
3 1 1 7 15 10 4 4 4 4 7 9 7 6 6 4 3 6 9 9 6 6 9 9 10 10 9 10 10 9 7 5 5 7 8 8 11 11 11 12 9 2 5 7 6 5 4 4 4 5 4 2 2 2 1 2 3 3 4 7 10 13 14 11 7 7 7 8 9 4 2 5 4 2 4 4 1 2 2 1 1 1 2 4 5 7 8 9
2 2 3 3 6 7 5 4 4 4 6 9 6 6 9 9 6 6 7 6 4 7 11 10 9 10 10 11 13 10 7 6 7 9 9 10 10 10 12 15 9 1 6 11 10 6 4 5 6 7 7 6 5 5 3 1 3 4 6 10 11 14 15 11 7 6 3 6 8 3 2 3 4 4 4 3 3 3 2 1 2 3 3 4 5 7 8 8
2 2 5 4 2 3 4 4 6 5 5 7 6 6 10 11 9 7 5 3 5 10 11 7 6 10 12 13 11 7 7 10 9 9 10 11 11 12 14 11 4 1 5 8 6 4 4 5 6 7 8 8 7 6 5 4 5 7 8 8 9 12 14 13 11 6 5 5 5 1 2 3 3 4 4 3 2 2 2 3 4 4 4 4 5 7 9 10
3 1 2 3 3 3 4 5 7 7 6 7 5 6 10 11 11 9 6 6 8 10 8 6 8 14 17 15 9 6 9 12 9 7 10 11 12 13 11 5 2 3 6 6 3 3 5 5 5 7 8 7 6 6 5 5 7 8 9 9 8 9 10 10 10 7 6 6 7 6 5 3 3 4 5 5 3 1 3 4 5 4 5 6 7 9 11 11
3 1 2 2 2 2 4 5 7 6 6 6 5 6 10 12 12 11 7 6 9 9 7 9 14 18 19 17 10 6 6 8 8 8 11 12 13 12 8 4 1 2 6 7 4 3 4 4 5 7 9 7 4 4 5 6 7 8 9 9 8 8 9 10 9 8 9 10 10 13 11 2 4 5 6 6 3 3 5 5 6 5 7 9 9 11 12 13
2 1 2 2 1 1 3 4 5 5 4 5 5 6 9 11 13 13 10 8 9 10 9 13 18 20 20 18 14 10 7 6 10 13 13 13 11 8 6 4 2 4 6 6 5 4 4 3 5 6 8 5 1 2 5 6 6 8 9 8 7 8 9 8 8 8 8 9 11 13 8 2 7 8 7 5 5 8 7 7 6 5 7 10 12 12 13 14
3 2 3 3 1 2 2 3 4 4 3 5 6 7 9 10 12 15 13 8 8 10 12 15 18 19 18 18 17 17 16 14 15 17 16 14 11 7 6 5 7 8 6 5 5 6 5 4 4 5 5 2 1 2 4 4 6 8 8 7 8 7 6 6 7 7 6 8 10 5 3 6 7 7 7 7 10 13 10 9 8 6 7 9 12 13 13 14
3 2 2 3 2 1 3 3 3 3 3 5 7 8 9 10 11 12 10 5 6 9 10 13 17 16 15 18 20 19 19 20 19 17 14 11 11 10 9 10 11 9 5 5 5 4 4 5 4 4 4 3 2 2 3 4 4 4 5 9 9 8 8 8 8 9 9 9 6 5 5 6 7 6 6 8 10 13 12 11 9 8 9 9 10 12 12 13
Wind_Direction
353 351 349 348 346 343 341 338 336 334 331 330 330 329 328 327 325 325 324 321 322 321 322 323 324 323 321 321 319 317 317 316 311 305 292 283 264 192 166 152 174 175 161 189 238 238 229 222 223 230 232 207 217 220 192 208 213 210 222 228 234 234 233 237 239 265 297 261 210 25 350 323 244 225 229 223 223 226 228 231 227 224 231 236 223 124 128 141
352 350 348 346 345 343 341 339 337 335 332 328 327 327 326 325 324 323 323 323 320 321 323 322 323 322 320 320 318 318 319 311 301 297 286 272 211 178 172 162 181 169 161 212 239 251 248 229 227 239 234 214 202 190 188 199 205 217 225 228 235 237 239 241 242 342 341 304 332 340 351 343 306 311 305 238 221 220 225 230 230 228 230 230 169 125 138 145
351 350 348 346 345 344 342 341 339 336 333 330 328 326 325 323 322 320 321 323 320 322 321 320 322 320 322 320 319 323 319 306 295 278 123 93 124 145 159 166 180 163 172 230 238 264 275 268 251 246 238 227 207 194 205 191 195 223 230 234 237 244 255 254 258 305 324 317 314 314 341 322 296 314 319 269 232 223 224 226 231 231 229 223 171 136 150 151
350 348 347 346 344 343 342 341 338 336 334 331 329 327 325 323 321 320 320 320 319 320 319 319 319 321 324 319 323 329 316 299 286 118 99 101 133 133 138 150 172 176 190 216 217 229 238 230 234 244 241 231 203 204 219 192 193 224 225 242 246 264 279 263 274 296 317 319 306 309 313 294 290 299 285 271 249 227 223 224 232 237 238 228 196 165 163 163
348 346 345 344 343 341 339 339 337 335 333 331 329 326 324 322 320 320 318 318 318 316 316 317 316 323 322 319 330 329 308 294 111 110 115 121 126 137 145 154 164 181 193 200 203 204 212 223 224 226 236 233 198 206 221 200 212 243 233 251 266 299 278 258 285 310 321 308 292 291 285 283 292 285 266 260 249 230 230 247 260 270 291 274 216 189 182 177
346 344 342 341 341 339 337 337 335 334 331 329 327 325 323 321 319 317 317 317 314 311 312 314 314 319 317 321 328 315 298 303 101 135 177 129 104 130 169 196 173 177 191 205 209 212 218 221 229 228 234 235 212 216 218 195 216 254 242 244 261 279 269 268 291 307 318 297 278 274 276 287 284 271 262 258 254 255 278 307 314 320 328 324 270 202 192 188
345 343 341 341 339 337 337 334 333 332 329 328 325 324 322 319 317 315 315 313 310 309 308 308 311 315 317 324 321 287 271 286 332 207 216 174 123 73 72 197 186 192 201 216 216 219 231 231 241 243 242 239 221 221 204 202 224 246 251 240 247 266 267 273 285 289 298 283 275 277 277 276 271 269 267 261 261 270 285 293 297 304 297 310 298 225 202 200
344 343 341 340 338 336 335 333 332 330 328 327 324 323 321 317 315 313 311 308 306 304 302 302 305 309 314 325 324 283 259 275 1 222 230 218 187 46 33 184 197 212 215 226 224 235 249 239 246 247 247 245 200 220 198 235 231 231 251 254 252 262 265 270 276 277 277 273 272 270 266 264 264 271 273 267 268 271 277 282 283 290 281 270 274 250 221 213
344 343 340 339 337 336 335 333 331 329 327 325 323 320 318 316 313 311 308 305 303 299 298 296 294 298 303 315 318 298 329 49 46 215 214 199 217 320 333 248 208 221 223 227 226 243 251 232 233 273 279 295 237 241 222 244 234 221 257 274 269 267 270 269 268 267 267 266 264 262 260 258 261 269 270 264 266 269 270 273 272 275 278 264 256 251 236 223
343 341 340 338 337 336 335 333 330 329 327 324 322 319 317 315 312 308 305 302 299 296 293 290 285 286 283 285 290 286 49 26 283 200 188 201 280 295 292 273 243 233 226 224 219 230 258 270 168 304 289 279 245 249 228 248 308 0 277 280 275 271 270 264 262 260 260 259 256 258 260 259 257 258 259 257 257 261 260 260 261 257 262 265 255 244 235 230
342 341 340 338 337 336 334 332 330 329 327 323 321 319 318 314 310 306 303 300 297 294 291 283 270 255 252 254 267 282 41 10 265 220 254 278 294 292 285 268 243 234 229 225 221 227 255 281 257 258 265 273 239 233 220 252 315 305 281 282 272 268 264 254 253 253 253 254 248 254 262 259 253 247 248 252 254 258 258 256 257 254 255 257 255 246 232 228
342 341 339 338 336 335 334 333 331 329 327 323 321 320 317 313 311 307 303 301 296 292 287 273 237 224 234 245 248 255 321 309 287 285 281 283 283 283 280 252 227 230 233 232 227 226 241 249 249 251 267 352 269 247 219 257 286 278 277 281 273 267 260 246 240 241 244 248 243 250 262 254 244 244 246 248 252 258 259 255 255 255 253 250 246 246 237 225
342 340 339 338 336 335 334 333 331 329 327 324 322 320 319 317 315 308 305 307 304 297 279 225 188 202 218 244 246 251 274 285 286 288 283 274 268 270 260 235 222 227 234 241 241 223 230 232 241 258 292 287 264 325 334 267 261 270 267 269 275 272 261 231 217 227 235 243 235 237 256 252 243 242 241 239 241 249 254 250 248 249 244 242 237 237 239 229
341 340 339 337 336 335 334 334 331 329 327 325 323 324 326 324 318 315 319 328 339 347 242 174 170 176 211 261 273 265 277 277 274 282 285 249 231 209 181 198 215 218 225 234 239 215 220 227 237 258 266 255 271 315 288 256 242 259 265 261 255 263 254 158 169 218 235 234 217 225 249 259 256 250 238 233 230 233 245 246 242 241 237 237 234 231 236 231
341 340 338 337 336 335 335 335 332 329 328 326 327 330 330 329 327 328 349 28 33 48 81 138 163 178 237 263 262 278 287 260 250 268 277 235 224 198 166 188 213 205 210 215 220 214 214 217 227 249 239 222 258 269 264 252 235 238 258 259 237 245 243 174 186 224 243 239 213 223 250 261 258 256 245 238 232 225 234 241 240 238 235 235 234 229 232 232
340 339 339 338 337 336 336 336 334 331 331 332 333 334 332 335 333 333 61 75 49 61 88 133 172 228 281 294 213 264 263 237 263 289 262 239 241 241 231 263 218 184 192 196 202 205 206 215 228 254 252 223 239 253 260 258 241 220 233 262 257 253 264 241 194 205 240 252 229 229 249 264 258 252 245 237 238 232 229 237 239 237 234 234 234 227 228 231
340 339 339 338 337 336 336 336 334 333 338 341 336 333 331 336 336 12 84 73 38 57 90 163 177 239 270 260 240 256 262 267 293 297 264 242 242 255 259 249 216 179 182 182 190 198 200 211 223 240 237 233 243 251 258 254 246 224 217 252 266 260 265 264 220 193 233 257 249 243 248 260 262 261 255 241 238 237 232 234 237 236 232 231 231 226 225 228
340 339 339 339 338 337 336 335 333 336 347 349 339 331 325 331 338 78 63 28 347 180 162 139 174 229 220 251 301 321 318 304 295 284 275 257 239 243 243 238 226 195 199 194 193 197 199 206 221 236 227 222 231 232 243 256 272 273 254 264 272 262 259 258 252 224 263 273 267 258 254 258 260 257 256 251 245 240 234 234 237 237 232 225 223 223 225 228
340 339 339 339 338 336 336 335 335 342 352 358 349 331 300 304 276 195 225 285 281 225 147 129 224 294 325 313 323 324 310 300 286 275 272 246 216 220 221 224 229 223 235 236 202 195 206 217 218 235 237 223 227 232 247 269 285 287 280 277 277 272 265 264 268 277 290 282 270 262 262 262 260 255 250 249 248 244 239 235 237 238 232 223 220 221 224 228
340 340 339 338 338 336 336 335 339 349 359 6 350 324 291 320 288 181 286 275 267 301 307 299 279 288 298 306 319 324 317 289 251 244 200 173 181 206 210 209 224 227 241 253 230 201 219 240 235 238 243 236 239 246 256 272 276 275 275 271 269 269 269 269 268 265 269 274 270 267 268 265 262 259 253 249 246 242 240 236 235 237 231 223 220 221 220 223
340 339 338 338 337 335 335 336 344 357 11 11 355 349 26 5 356 352 334 296 256 282 281 283 282 276 283 296 307 322 324 269 256 226 161 175 196 221 213 205 231 235 233 246 247 209 211 245 250 249 250 248 251 256 260 263 261 261 265 266 265 263 267 270 268 264 262 267 271 270 268 264 261 259 254 251 246 241 237 233 233 236 235 225 217 219 219 218
339 339 338 336 335 334 335 336 349 1 9 11 5 22 35 14 357 331 320 301 293 277 266 271 269 266 268 275 287 299 274 275 292 243 154 190 224 232 228 212 240 251 241 242 243 232 232 248 253 251 253 253 255 258 257 256 255 255 258 262 262 262 268 269 259 253 254 257 270 274 270 264 260 260 254 246 244 243 239 235 234 235 236 228 216 215 216 215
338 338 337 335 333 333 334 336 358 2 359 4 9 23 24 4 346 315 288 291 294 265 252 261 264 269 269 265 234 248 263 292 313 307 137 212 237 234 252 245 250 255 249 243 241 244 248 247 248 249 250 252 253 252 250 252 253 251 252 256 259 260 268 267 256 258 263 267 278 280 277 267 261 259 254 247 246 247 243 237 233 233 234 230 222 216 213 212
337 336 335 335 331 332 338 338 2 359 343 324 1 22 11 349 345 322 297 287 286 261 240 246 275 279 320 337 225 249 284 303 299 305 122 214 245 229 256 257 257 257 252 248 247 251 255 256 259 256 249 251 252 247 244 245 247 247 245 249 260 265 267 271 278 284 281 273 269 269 269 262 254 252 250 246 244 244 242 237 232 230 231 228 224 220 215 211
337 335 334 333 330 335 346 311 0 351 303 283 356 8 347 343 339 322 311 277 237 188 187 196 226 236 301 279 219 274 300 291 277 281 202 232 259 263 260 259 258 260 259 257 256 257 259 263 266 259 250 251 255 250 243 241 245 249 243 243 252 261 264 269 275 278 276 267 254 254 262 260 248 247 246 240 235 234 232 232 230 227 226 223 220 218 214 209
338 335 334 331 329 339 354 202 8 331 287 331 16 347 325 335 325 304 297 262 188 107 177 200 198 247 326 291 264 292 292 289 318 299 237 238 258 263 268 266 248 259 272 275 269 264 265 268 267 262 259 255 255 253 244 239 244 250 244 240 246 256 260 263 266 266 266 270 266 261 266 272 260 249 246 234 227 228 226 226 226 224 223 219 215 214 210 207
340 335 333 330 329 340 351 345 339 312 301 8 3 318 319 323 304 264 266 250 147 16 330 323 47 335 329 328 319 299 301 326 327 309 178 220 247 240 254 267 259 263 281 286 274 271 267 263 255 251 254 253 251 249 238 230 235 248 249 247 252 258 259 258 258 255 259 268 270 262 260 269 265 255 256 241 224 222 223 223 221 218 219 216 211 211 207 205
343 338 335 331 330 333 315 318 316 317 344 344 317 311 318 312 271 234 260 269 71 343 323 25 336 272 287 314 312 284 306 324 315 354 138 203 244 241 254 270 280 283 280 247 261 274 236 249 254 246 243 245 247 248 237 229 235 250 260 266 262 259 261 260 257 255 261 266 262 251 244 252 257 249 256 252 236 225 220 220 217 213 214 212 208 208 205 202
346 343 338 337 352 11 323 302 289 312 333 309 307 315 314 297 223 225 256 285 1 354 1 354 297 291 309 323 332 300 302 312 310 316 221 216 233 254 268 278 285 286 273 241 257 269 259 259 275 264 243 240 248 251 246 240 243 256 270 272 261 255 257 256 253 256 259 257 256 252 242 246 257 245 240 239 233 227 219 217 217 211 209 207 204 203 201 200
349 346 347 4 36 25 311 278 264 300 308 301 310 312 299 242 220 265 292 329 346 348 340 314 319 326 327 332 341 340 331 322 312 300 277 255 228 235 268 285 275 277 270 255 256 264 264 261 286 267 244 246 263 265 256 247 250 262 267 262 254 247 246 243 244 250 254 251 250 249 244 246 252 246 245 238 224 222 220 214 212 209 205 201 200 199 197 197
352 355 16 43 42 7 315 310 330 317 308 307 309 301 266 223 248 299 1 6 309 336 344 329 329 331 331 331 330 335 335 329 325 310 297 297 254 235 248 247 235 260 262 254 251 257 259 245 228 231 227 235 255 254 240 236 243 249 246 246 251 243 234 237 238 235 244 250 248 246 242 242 244 239 245 244 225 214 215 214 207 203 201 197 195 195 194 195
355 12 40 45 33 17 341 324 327 320 316 314 306 285 248 260 285 349 356 336 294 342 348 333 329 328 325 323 327 343 338 330 331 324 315 311 295 277 265 259 270 275 271 276 281 276 261 237 224 225 219 221 236 238 224 222 226 229 228 231 241 236 227 236 237 232 240 248 250 249 240 234 239 243 246 253 251 226 214 217 207 198 195 192 190 190 190 192
358 29 35 32 26 12 344 326 321 325 328 313 290 253 259 299 3 358 335 339 340 337 331 324 324 322 316 313 327 350 342 324 322 322 315 306 296 294 281 269 270 271 284 306 308 301 276 226 204 217 216 208 223 234 225 218 211 213 219 222 227 231 231 236 238 238 244 249 247 242 237 234 237 237 238 248 256 247 224 221 212 196 190 187 185 185 185 188
5 59 32 26 22 8 351 336 327 329 322 300 272 259 287 327 3 341 329 336 333 325 324 325 322 317 316 317 329 347 338 315 322 321 312 306 298 302 298 249 242 262 275 291 301 301 288 278 168 203 194 176 213 233 247 257 228 216 222 226 232 236 235 241 251 249 249 263 252 231 225 230 232 227 222 225 233 231 220 214 209 196 186 182 181 180 179 183
16 70 35 25 12 357 346 331 323 326 314 289 275 289 332 0 350 342 341 337 329 323 324 322 314 310 326 335 341 358 340 308 324 323 316 316 313 316 323 316 268 269 256 274 300 291 282 300 112 207 230 199 224 228 237 253 244 216 219 226 235 238 237 245 263 272 275 288 279 238 223 230 236 231 214 209 214 212 205 199 196 191 182 179 178 176 177 182
27 81 32 21 356 346 342 329 319 320 302 284 290 326 14 3 338 347 345 333 326 321 321 319 316 321 334 338 332 343 327 295 316 321 324 326 320 316 323 350 353 289 253 266 285 271 274 293 66 264 242 226 246 236 215 227 232 208 214 221 231 238 246 250 255 267 269 268 265 229 223 233 236 230 207 203 205 198 194 189 186 185 179 176 175 173 177 182
1 289 28 17 357 345 342 332 317 309 285 284 311 358 16 1 352 349 337 329 321 316 316 316 334 345 332 330 324 328 333 322 324 332 329 324 328 336 324 358 36 312 276 279 271 264 285 289 304 283 252 198 240 254 222 216 223 214 212 225 231 232 245 256 256 259 252 252 247 209 212 219 208 194 193 204 194 181 185 185 179 180 177 172 171 170 175 179
326 254 120 19 355 342 340 333 315 296 267 287 326 42 358 357 2 348 338 331 316 313 315 303 330 349 329 328 323 325 330 326 330 336 321 312 336 13 329 336 62 295 292 280 261 245 298 293 259 215 245 164 193 238 226 208 219 235 264 280 246 237 239 231 238 262 258 257 245 208 209 207 175 137 119 180 170 162 174 180 174 177 175 168 166 167 170 172
296 249 156 13 350 340 339 327 301 274 265 319 2 35 356 333 340 341 338 331 312 306 311 307 327 332 319 323 319 319 325 319 323 329 319 307 317 343 2 8 233 266 263 245 248 264 277 283 264 163 213 253 203 219 224 195 203 231 260 263 246 262 273 241 242 267 265 272 261 206 199 181 126 102 32 91 136 152 162 163 166 171 170 164 162 164 165 166
300 263 135 4 348 342 334 309 291 294 336 2 4 3 351 329 327 334 335 332 317 301 305 314 321 315 312 320 319 318 317 312 319 319 293 295 306 312 89 89 216 268 265 236 235 266 251 230 295 260 210 239 226 215 241 230 197 214 232 235 233 230 256 275 263 246 247 276 280 204 181 137 75 83 32 22 0 253 159 148 148 156 162 161 157 158 160 160
300 284 58 355 349 347 316 293 343 13 2 35 11 346 347 334 318 326 336 336 310 288 292 305 310 312 314 318 321 322 314 312 315 306 278 284 313 335 97 126 197 277 286 252 228 247 251 233 284 299 267 242 213 170 227 262 233 229 235 237 239 232 236 262 257 236 232 254 264 233 165 104 40 34 11 1 337 308 270 144 134 136 146 150 146 148 153 156
310 15 8 350 351 344 307 300 69 15 0 18 347 319 327 323 311 324 340 340 320 309 301 302 310 317 316 314 316 321 322 313 304 297 295 297 320 337 100 150 242 280 278 278 253 233 253 271 281 288 280 267 113 134 161 180 192 237 250 248 250 245 237 246 251 253 265 261 258 255 210 126 43 19 4 344 321 301 297 58 140 136 132 139 143 144 148 153
353 19 3 356 354 333 299 16 54 2 36 13 330 305 304 310 317 327 335 338 334 333 325 317 318 317 315 318 315 319 340 318 282 278 302 307 324 341 339 175 296 294 257 275 282 213 210 264 277 281 255 195 145 143 167 179 184 216 238 237 237 237 227 235 252 283 302 287 267 239 179 137 19 9 356 325 308 285 247 39 240 142 128 141 150 152 156 157
353 320 338 6 4 349 319 36 9 347 9 350 330 333 321 311 328 331 331 331 330 332 329 324 323 318 313 315 308 307 328 311 269 281 300 305 322 334 324 309 331 307 238 292 331 210 236 264 278 292 262 195 174 181 185 187 198 228 243 231 230 234 230 234 250 260 269 282 283 238 152 118 61 357 335 303 285 227 103 18 306 170 150 152 151 157 166 164
312 257 200 18 24 32 67 51 358 336 350 344 344 357 353 353 348 329 319 307 304 325 325 315 316 317 312 311 311 309 300 259 255 292 302 304 313 322 323 324 331 288 252 288 291 268 277 279 276 294 296 298 320 303 293 170 196 220 242 241 237 234 228 226 244 248 246 285 299 278 111 90 101 55 331 302 166 97 66 11 280 212 185 169 156 160 168 169
331 20 349 5 41 53 83 70 10 348 349 346 344 359 0 356 347 337 324 305 304 327 320 308 309 317 321 324 321 313 299 270 264 281 296 306 311 317 320 320 324 282 268 281 271 260 278 274 268 279 287 306 328 322 325 293 221 215 229 239 233 228 226 224 237 253 273 315 311 312 2 15 74 60 349 357 64 68 81 160 227 215 195 189 172 167 169 173
3 16 2 347 353 35 63 56 18 1 346 341 333 342 351 352 354 350 333 318 327 326 320 310 315 328 334 336 327 303 301 304 288 283 301 310 313 319 319 315 311 290 294 288 259 243 268 273 279 286 284 295 308 299 288 265 246 247 259 262 240 227 227 225 234 265 343 325 292 255 247 280 33 32 343 347 24 49 102 169 199 203 203 202 187 175 173 175
23 71 35 342 313 0 11 2 358 344 334 338 333 335 343 351 2 356 327 313 323 328 332 324 328 336 337 337 330 299 306 318 312 308 321 323 322 325 327 323 316 335 330 320 286 263 279 288 304 304 295 295 290 279 277 266 256 262 282 294 281 257 249 242 249 286 313 273 271 297 281 259 44 18 339 331 329 49 109 161 180 194 209 204 192 183 177 175
31 78 66 349 308 351 348 337 333 323 333 343 341 352 347 344 354 354 334 314 318 328 339 325 327 335 334 332 328 305 307 320 314 315 324 323 319 318 320 316 304 2 342 326 319 303 289 300 329 314 300 296 282 261 266 268 270 280 292 299 295 278 268 260 261 272 261 245 258 280 278 263 64 25 342 324 335 79 99 139 159 178 191 188 186 183 178 176
26 26 3 324 293 338 332 330 322 313 343 357 350 360 349 340 346 343 327 305 304 320 335 328 326 328 325 327 332 326 318 305 291 293 303 308 308 308 311 314 318 335 332 326 334 330 305 329 355 321 299 300 270 239 259 267 279 288 291 293 288 274 266 265 271 274 266 257 258 260 261 17 45 24 343 336 50 68 80 107 120 138 159 169 174 174 175 175
54 57 347 315 319 344 323 328 321 308 350 9 355 350 343 338 342 334 319 289 276 301 324 326 326 326 322 328 338 337 330 319 300 289 286 286 282 281 285 293 310 322 325 321 326 328 315 315 324 309 309 345 55 263 268 262 265 272 289 315 322 312 306 298 290 293 301 297 293 300 16 21 25 20 334 341 47 57 60 72 81 103 125 147 161 163 168 171
37 64 353 308 300 352 336 331 328 327 1 6 343 334 326 322 329 331 322 294 266 288 310 322 325 325 323 332 340 336 324 315 301 289 287 279 266 265 267 272 287 295 292 300 320 338 332 314 315 321 323 350 13 326 281 257 258 283 327 348 346 326 317 314 308 313 313 305 317 4 19 354 18 38 336 332 34 50 52 55 56 81 104 120 136 146 157 161
Height
845 843 842 840 839 837 835 834 832 831 829 828 826 825 823 822 821 820 818 817 816 814 813 811 810 809 807 806 803 801 798 795 792 790 788 786 784 784 784 784 785 785 786 786 787 786 784 784 783 783 782 779 778 774 774 774 772 774 775 775 768 760 755 748 745 746 745 739 740 745 744 741 737 731 724 723 725 726 727 725 721 723 722 723 726 729 733 738
844 843 841 840 838 836 835 833 831 830 828 826 825 824 822 821 819 818 817 816 815 813 812 811 809 808 807 804 802 800 797 794 790 787 785 784 783 784 784 784 785 785 786 786 785 784 782 781 781 782 779 776 775 774 774 772 772 772 770 770 764 754 749 743 744 749 752 750 749 747 746 746 742 738 731 731 731 728 732 728 722 725 725 723 726 731 734 737
844 843 841 839 837 836 834 832 831 829 827 825 824 822 821 819 818 817 816 815 813 812 811 810 808 807 805 803 801 798 796 792 786 783 783 784 783 783 784 784 784 785 786 786 785 784 783 782 782 780 777 774 772 773 773 771 771 769 766 767 758 750 748 745 748 753 756 755 753 749 748 748 744 741 739 738 736 731 732 729 725 727 727 725 727 729 732 735
844 842 840 839 837 835 833 831 830 828 826 824 822 821 819 818 817 816 814 813 812 811 810 809 807 806 804 802 800 797 796 789 781 781 783 783 783 783 784 784 784 785 785 786 785 785 784 783 782 779 776 773 771 773 772 769 769 765 764 763 753 752 757 754 754 757 758 758 755 752 751 750 744 742 744 743 742 735 728 724 724 726 724 722 723 727 730 733
843 841 840 838 836 834 832 831 829 827 825 823 821 820 818 817 815 814 813 812 811 809 809 808 806 805 803 801 799 798 795 784 778 782 783 783 784 783 784 784 785 785 786 786 785 784 783 782 780 778 776 771 770 773 770 765 767 766 762 761 754 758 766 760 758 762 762 761 758 756 754 750 746 745 745 744 745 735 725 725 725 725 725 720 718 722 726 729
842 840 839 837 835 833 831 830 827 825 824 822 820 818 817 815 814 813 811 810 809 808 807 806 806 804 803 801 799 798 794 781 779 784 782 783 784 783 784 784 784 785 785 785 783 783 781 780 778 776 773 770 770 770 767 765 769 770 763 761 761 763 768 763 762 765 765 764 762 759 754 750 749 748 743 742 742 733 726 728 729 727 726 721 716 717 723 727
842 840 838 836 834 832 830 828 826 824 822 820 818 817 815 814 812 811 810 809 808 807 806 805 805 803 802 801 798 796 792 783 781 783 782 784 784 784 785 784 784 785 785 784 782 781 779 779 777 774 773 770 770 769 769 769 770 772 766 761 765 767 768 766 764 765 766 766 763 759 756 753 752 748 742 740 739 734 731 730 730 728 726 725 722 718 721 724
841 839 837 835 833 831 829 827 825 823 821 819 817 815 813 812 811 809 808 807 806 805 805 804 804 803 802 801 797 792 787 782 782 782 782 784 784 784 785 784 785 784 784 783 781 780 779 778 776 774 774 770 771 771 771 773 770 770 767 763 767 769 768 766 765 766 765 764 761 759 758 755 751 747 743 739 737 735 732 730 730 729 727 727 726 722 722 723
840 838 836 834 832 829 827 825 823 821 819 817 815 813 812 810 809 807 806 805 804 804 803 803 802 802 802 801 799 791 781 780 782 782 783 784 784 785 784 784 784 783 783 782 781 781 778 777 776 776 775 772 773 772 772 774 768 766 767 766 768 768 766 766 765 765 763 761 760 759 758 753 750 748 742 736 736 734 732 731 730 729 729 728 726 725 723 724
839 837 835 832 830 828 826 824 822 820 818 815 813 811 809 808 806 805 804 803 802 801 801 801 801 802 802 801 800 789 779 782 783 782 783 783 784 784 784 784 783 783 782 781 781 780 778 777 777 778 777 774 774 773 773 773 768 768 770 768 769 767 765 765 764 763 761 759 758 759 757 751 749 750 743 734 732 732 731 732 729 730 730 728 726 724 723 724
838 836 834 831 829 827 824 822 820 818 816 813 811 809 807 806 804 802 801 800 799 799 799 799 799 800 800 800 797 786 780 783 783 783 783 783 783 783 783 783 783 782 780 780 780 779 779 778 778 779 777 774 773 773 772 771 770 770 771 769 767 764 762 761 762 760 759 758 755 756 755 750 748 746 741 735 732 730 731 731 729 729 728 727 726 723 722 722
837 835 832 830 828 825 823 821 818 816 813 811 809 807 805 803 801 800 798 797 796 796 796 796 798 798 799 799 793 784 781 783 783 783 783 782 783 781 781 781 781 781 780 779 778 778 779 779 780 779 775 774 773 771 771 771 772 770 770 770 764 760 759 755 756 756 756 755 751 754 756 749 745 740 736 736 733 730 731 730 728 728 727 726 725 723 720 719
837 834 831 829 827 824 822 819 816 814 812 809 806 804 803 800 799 797 795 795 794 794 794 795 796 797 798 794 786 783 783 783 782 782 781 781 781 780 780 779 779 780 780 779 777 778 780 780 781 778 775 776 773 770 771 770 771 769 767 766 763 759 752 746 749 752 753 751 747 754 757 745 735 732 731 732 732 732 729 727 726 726 725 724 724 724 720 717
836 833 831 828 825 823 820 818 815 812 810 807 804 802 800 799 797 795 794 793 793 792 792 793 795 797 797 788 781 782 782 781 781 780 780 780 779 779 779 779 779 779 779 779 778 779 780 780 780 778 776 776 772 771 771 768 767 767 765 762 760 759 748 741 748 751 751 747 743 752 755 741 731 726 724 724 726 730 728 724 723 723 723 723 722 723 720 716
835 832 830 827 824 822 819 816 813 810 808 805 803 801 799 797 796 794 794 793 793 792 792 794 795 796 794 785 780 781 780 780 780 779 779 779 778 777 777 778 778 778 778 779 779 779 780 779 779 777 774 773 774 773 770 764 761 762 765 758 749 749 744 740 746 749 750 744 740 749 751 739 730 725 722 720 720 723 725 722 720 719 720 720 720 721 719 716
834 831 829 826 823 820 818 815 812 809 806 803 802 800 798 796 795 794 793 793 793 793 794 794 794 794 788 780 778 779 778 778 777 777 778 778 777 775 776 777 776 777 778 777 778 778 778 778 776 774 772 772 772 770 766 762 757 756 761 756 745 745 745 741 742 743 746 744 740 744 745 738 729 723 720 719 718 719 721 720 717 716 717 718 719 719 718 715
833 831 828 825 822 819 816 814 811 808 805 803 801 798 797 796 795 794 794 794 794 794 795 793 794 795 786 777 777 777 775 776 776 776 776 775 776 775 775 774 773 774 775 776 777 776 776 775 773 771 770 770 767 766 768 764 754 747 751 753 748 747 748 747 744 741 742 744 743 741 740 737 729 723 720 717 716 717 718 718 714 712 714 716 717 717 716 714
832 830 827 824 821 818 815 813 810 807 805 803 799 798 797 795 795 795 794 794 794 794 793 792 794 790 780 775 775 773 773 774 774 774 773 773 773 774 774 773 771 772 772 772 773 772 772 770 769 768 766 766 765 764 767 759 749 747 750 753 751 747 748 748 745 741 742 745 745 742 739 735 729 724 722 717 715 715 715 714 712 709 711 713 715 716 715 712
831 828 826 823 820 818 814 812 809 807 805 802 799 797 795 794 794 794 794 793 790 787 784 786 788 781 775 774 773 773 773 772 772 771 770 770 771 772 772 771 770 770 769 767 766 766 767 767 767 768 764 761 760 758 758 752 750 754 755 756 755 751 747 745 743 741 745 748 744 741 739 734 729 724 721 718 715 714 713 712 710 707 707 709 711 713 713 711
830 827 825 822 819 817 813 811 808 807 805 802 800 796 795 794 789 788 790 789 786 784 782 782 782 779 776 774 772 773 772 770 769 768 769 769 770 769 768 769 768 768 766 763 760 758 762 764 762 761 758 755 753 752 752 753 754 757 758 758 756 753 748 743 743 741 744 748 743 737 736 733 728 723 719 717 714 713 712 711 708 703 703 705 706 709 710 710
829 826 824 821 818 815 812 810 808 807 805 803 801 797 798 800 795 793 793 787 782 784 783 781 781 779 777 774 774 774 773 770 765 764 768 768 768 768 764 765 766 764 761 758 756 757 762 764 756 751 750 750 750 750 751 754 757 758 757 757 754 750 746 741 741 741 742 746 741 735 735 732 726 722 717 716 714 711 708 708 706 702 700 701 703 706 707 706
828 825 822 819 817 814 812 810 808 807 806 804 802 799 802 805 804 804 801 792 783 782 782 780 780 778 776 775 774 774 774 770 763 761 766 767 767 766 761 761 763 759 755 755 757 760 762 759 751 747 747 748 749 749 751 754 756 756 754 754 751 745 742 739 738 738 740 743 739 733 733 729 722 718 715 713 711 708 704 703 703 701 699 698 699 702 703 703
827 824 821 818 815 813 811 809 808 807 806 806 804 802 804 806 805 805 804 797 784 778 778 778 777 775 773 773 773 774 772 768 764 761 763 766 764 763 761 759 759 756 753 754 757 759 758 750 744 744 745 748 750 749 752 755 755 756 755 754 748 741 742 740 735 734 737 739 737 734 732 726 719 716 712 709 707 704 701 699 698 696 695 695 695 697 699 701
825 822 820 817 813 811 809 808 808 807 807 806 805 805 805 805 805 804 802 795 784 777 775 776 776 773 772 772 772 772 768 766 765 761 762 764 762 762 761 757 757 756 752 751 752 752 748 742 740 743 746 748 750 750 752 757 757 756 756 755 749 742 741 739 736 736 737 737 735 735 733 724 716 715 710 706 705 703 699 696 694 692 690 691 693 693 695 696
824 821 818 815 812 810 808 808 807 807 807 805 804 805 805 805 804 803 802 792 780 775 773 774 774 772 771 771 771 769 766 764 762 759 760 761 760 760 758 754 755 755 750 747 748 747 744 740 740 744 746 747 749 749 750 754 757 755 752 751 749 744 741 739 739 740 740 736 728 728 733 721 708 708 706 702 700 697 694 692 690 688 686 688 689 690 691 692
822 819 816 813 811 808 807 807 806 807 805 802 804 805 804 805 802 803 802 785 771 770 772 772 772 771 770 769 768 766 764 762 757 756 759 760 759 759 758 752 752 753 748 746 746 744 741 739 741 745 746 748 749 749 748 751 757 753 743 742 743 741 739 739 741 742 741 733 721 721 729 721 706 701 696 692 692 690 687 687 685 684 683 683 684 686 688 689
820 817 814 811 809 808 807 806 806 806 803 802 805 804 803 804 802 803 796 777 769 772 772 769 769 771 769 766 765 764 765 760 755 755 758 760 758 758 759 754 751 752 749 753 753 745 742 743 746 748 749 750 750 748 746 748 754 746 735 737 741 740 740 739 739 740 733 725 719 719 726 725 712 701 690 682 682 683 682 680 678 678 678 677 679 680 683 685
818 814 812 809 808 808 807 807 807 804 803 804 804 803 803 801 801 801 791 778 775 774 771 770 769 769 767 763 761 762 762 759 759 758 757 759 758 757 760 755 753 753 752 761 761 747 745 749 749 750 752 750 745 744 742 742 745 739 733 738 741 741 741 738 737 733 727 727 727 719 720 723 713 700 691 684 680 679 676 673 670 670 672 672 674 676 677 680
816 812 809 808 807 807 806 807 807 804 805 804 803 803 801 800 801 794 783 780 778 771 771 771 768 767 764 759 758 759 759 759 761 758 754 757 757 756 758 755 755 755 753 758 758 748 744 747 749 750 750 747 740 736 737 739 740 736 736 740 739 739 739 739 738 732 729 734 732 718 714 717 709 696 691 687 682 675 668 666 664 663 665 667 669 672 673 675
814 811 808 807 807 807 807 806 805 805 804 802 802 801 799 800 795 784 779 781 778 771 769 769 768 766 763 762 760 757 757 757 756 755 752 752 755 755 755 754 757 757 753 752 751 746 742 744 751 753 749 745 739 736 736 739 739 738 741 741 738 736 734 735 733 730 737 737 725 715 711 713 709 699 689 678 669 666 662 660 658 657 659 662 665 667 668 671
813 810 808 808 808 808 806 805 804 804 802 802 801 799 799 794 782 778 781 778 777 775 769 769 770 764 762 765 763 758 757 755 753 754 752 749 752 754 754 755 758 757 752 747 744 741 739 743 747 746 744 744 743 740 739 739 740 742 743 740 739 735 732 735 730 730 743 736 716 707 706 709 709 700 686 668 654 653 655 653 652 653 654 656 660 662 663 667
812 811 810 808 808 808 806 805 804 803 801 800 799 797 794 784 776 781 781 774 780 782 774 773 772 766 764 764 762 759 758 756 752 752 753 750 748 747 749 752 753 754 747 739 738 736 732 733 734 735 736 738 740 738 736 737 739 741 739 740 741 735 734 739 732 730 737 725 708 703 700 702 701 692 682 667 653 647 646 644 643 646 649 651 655 657 659 662
812 811 810 808 808 808 807 806 804 802 801 799 798 793 787 781 780 784 780 777 784 781 774 774 771 769 767 763 761 759 759 758 753 752 752 751 749 744 743 744 744 750 747 740 740 738 730 723 724 731 730 730 734 734 732 732 733 735 734 736 737 734 740 744 733 727 724 710 698 695 696 698 692 682 673 664 656 648 644 641 638 639 643 647 650 652 656 660
811 810 810 809 808 807 806 805 802 802 800 798 795 788 783 785 784 782 781 782 783 778 775 776 772 770 764 761 763 762 764 761 751 752 751 748 750 745 739 740 741 744 747 746 744 741 736 726 723 727 726 726 730 728 726 725 729 731 726 727 728 726 735 738 725 717 710 701 694 691 696 699 686 669 655 649 647 644 641 638 635 636 638 643 646 649 653 658
810 810 810 808 808 807 805 804 802 801 799 796 790 781 783 788 784 782 787 787 785 782 780 777 773 770 761 759 763 765 770 766 753 752 750 744 747 744 738 740 741 742 748 751 746 740 736 727 721 723 723 725 726 723 723 726 729 727 721 724 724 715 720 725 719 712 710 713 709 700 693 681 665 648 635 634 637 635 635 633 633 635 635 639 643 646 651 655
810 810 810 809 809 807 805 803 801 800 798 793 786 780 785 790 785 785 789 790 790 788 785 780 772 769 765 763 764 764 768 767 757 752 748 742 743 742 740 741 744 746 749 751 748 740 734 727 722 723 721 722 722 719 721 725 728 727 723 722 716 710 714 719 718 714 717 722 713 700 688 670 656 645 631 630 632 629 629 629 630 632 632 636 641 644 649 652
810 809 809 809 808 806 804 802 800 799 796 790 786 786 789 788 787 789 790 791 791 789 791 790 776 771 773 770 765 762 763 762 755 753 752 746 742 740 740 745 753 755 753 755 750 739 736 731 723 723 722 720 721 720 719 720 723 727 725 717 711 713 715 720 726 722 718 716 700 686 679 665 657 653 642 635 632 629 629 627 629 630 630 633 638 642 646 648
810 809 808 809 808 806 803 801 799 798 793 788 789 792 792 790 789 792 793 793 792 789 792 792 780 774 778 777 769 764 767 765 756 757 758 750 744 742 741 748 759 761 758 761 754 740 740 737 724 722 723 719 719 723 722 720 719 720 719 715 717 723 721 722 730 729 720 712 693 674 665 655 653 656 651 641 632 630 631 629 629 630 628 631 635 640 644 647
810 807 806 808 808 804 802 801 798 795 790 787 790 792 794 795 793 792 794 793 791 789 788 785 781 779 778 778 774 770 773 771 761 762 764 754 745 742 743 752 761 764 761 760 754 741 741 744 731 720 721 720 719 721 720 718 719 720 720 719 720 724 728 726 725 724 722 715 696 673 659 656 659 660 656 647 639 637 635 632 630 629 628 630 634 638 642 646
810 804 804 809 807 803 802 800 796 792 790 791 795 796 797 798 795 793 794 794 792 789 785 783 784 785 779 775 777 777 777 773 767 768 765 755 748 743 747 759 765 764 757 752 751 741 738 746 738 719 715 719 718 716 714 713 717 720 722 723 720 723 735 736 724 717 717 716 701 675 660 662 661 656 654 652 648 642 638 637 635 631 630 630 633 637 641 645
809 802 804 808 806 803 802 798 798 798 795 794 799 802 803 802 799 795 793 794 793 788 786 786 785 784 779 777 780 783 782 774 769 769 762 754 750 746 750 762 766 762 754 745 743 739 736 742 738 723 714 715 714 711 713 715 714 717 719 720 718 719 729 732 721 708 706 708 695 669 664 671 663 653 654 653 650 643 637 638 638 635 635 634 635 638 641 644
807 803 808 809 806 804 800 796 801 804 800 800 804 807 808 806 802 797 793 793 792 787 786 785 782 781 780 782 784 787 787 779 770 767 759 749 748 749 751 758 761 759 754 745 735 732 733 735 733 724 714 710 711 709 712 716 716 720 722 719 718 719 725 730 723 711 704 699 681 660 663 671 661 655 657 652 648 643 635 636 638 636 637 639 639 641 642 644
810 809 811 811 807 803 799 796 799 801 802 807 809 808 808 807 804 799 795 795 792 789 787 783 781 781 781 784 789 791 792 783 770 763 757 748 745 746 748 752 755 755 751 743 734 731 733 732 729 723 710 705 711 713 714 717 720 724 722 718 721 721 723 726 720 715 713 698 674 659 662 671 664 655 657 654 648 641 635 635 637 636 638 640 641 642 644 646
815 814 813 813 809 803 802 805 806 804 806 810 810 807 806 806 806 804 801 799 796 792 789 784 780 780 781 785 789 791 793 787 772 762 757 752 745 742 743 745 748 752 748 742 739 737 734 730 728 723 714 709 713 717 719 720 722 725 721 718 720 720 722 722 716 718 718 694 669 657 657 667 668 658 657 657 649 640 636 635 635 637 638 640 641 643 645 647
814 813 812 813 812 808 811 818 818 814 813 812 811 808 805 803 805 807 805 802 797 794 793 787 780 780 783 784 785 787 790 789 780 767 760 756 749 741 741 740 742 749 749 743 741 739 732 727 725 724 720 716 717 718 718 720 723 727 726 723 720 717 717 715 711 714 708 684 666 661 656 659 663 660 660 658 649 643 640 637 636 636 637 639 642 643 645 646
813 813 813 813 813 813 818 823 823 819 818 818 814 808 806 805 803 804 805 801 796 795 794 788 783 783 782 781 786 789 785 782 779 771 764 761 753 744 740 738 739 747 749 744 740 737 732 725 721 722 720 716 716 715 714 719 724 724 723 719 716 712 708 707 706 704 699 688 677 673 672 668 663 661 661 657 651 649 645 641 638 637 637 639 641 642 644 645
817 821 825 823 817 814 817 821 823 823 822 822 817 811 809 808 805 806 805 800 797 797 792 784 782 783 780 781 789 790 783 777 772 767 764 759 753 746 741 737 739 743 745 740 736 734 733 725 717 718 716 711 711 710 709 714 720 720 716 711 708 705 703 706 704 696 697 699 685 677 685 682 667 661 663 660 656 652 647 643 640 638 638 639 640 642 644 645
821 826 832 833 827 822 822 824 826 826 823 821 817 814 812 810 811 814 811 804 800 796 792 786 781 779 777 780 788 789 784 776 765 761 762 758 754 751 743 737 739 742 742 738 733 731 730 723 715 714 712 708 708 708 706 709 713 714 712 710 709 709 708 709 707 703 707 704 687 678 683 680 669 663 662 661 658 653 648 643 639 638 639 639 640 641 643 644
827 828 831 833 832 829 829 829 828 825 822 821 817 816 817 815 813 815 815 812 806 796 792 791 784 778 776 777 781 786 787 781 771 765 762 762 762 757 746 739 740 742 743 741 734 731 729 722 715 713 711 706 706 706 705 708 710 711 712 712 713 713 712 711 711 711 710 702 693 690 685 675 669 664 661 659 656 650 645 641 639 639 638 638 640 640 640 642
835 835 834 833 830 829 828 827 826 822 819 819 818 817 819 818 816 817 815 814 811 799 791 792 788 781 778 774 773 777 781 783 782 775 767 768 766 756 746 741 739 742 744 742 736 733 730 722 715 715 712 706 705 706 706 708 712 715 714 709 705 704 704 705 706 705 701 696 693 688 678 669 663 661 660 658 652 649 648 643 640 638 637 636 638 638 639 641
841 841 840 836 829 827 826 823 823 820 816 819 822 821 821 820 821 822 814 807 807 801 793 793 791 782 776 771 768 769 771 774 776 771 767 768 764 754 749 744 741 745 748 744 740 736 731 723 715 715 714 707 703 705 705 706 712 715 710 702 699 700 700 701 702 699 696 691 683 675 670 667 662 661 662 658 653 653 653 648 642 638 636 636 636 637 639 640
842 840 841 839 829 825 825 821 818 817 817 822 826 825 825 822 820 823 818 806 801 799 794 793 792 786 779 771 766 767 768 767 766 761 759 759 754 750 749 745 743 749 751 746 740 735 733 727 718 718 717 707 700 702 703 705 708 709 705 700 700 702 700 698 696 693 690 686 679 675 673 668 663 662 665 662 659 657 656 654 649 642 638 636 636 637 639 640